Date String (YYYY-MM-DD hh:mm:ss) UTC,Instrument flags,Ambient pressure (hPa),Sample flow (lpm),Bypass flow (lpm),Sample temperature (°C),Ambient temperature (°C),ASC tube jacket temperature (°C),LED temperature (°C),Box temperature (°C),Sample RH (%),Span deviation,Mass concentration (μg/m³),Mass concentration (μg/m³),Mass concentration (μg/m³)
DateTimeUTC,F1_M11,P_M11,Q1_M11,Q2_M11,T1_M11,T2_M11,T3_M11,T4_M11,T5_M11,U1_M11,ZSPAN_M11,X0_M11,X2_M11,X1_M11
2022-01-20 11:00:00,,0832.1,5.00,0.00,22.5,22.6,00.0,31.3,24.4,10.1,-001.5,0011.36,0009.49,0009.18
2022-01-20 11:01:00,,0832.1,5.01,0.00,22.5,22.4,00.0,31.3,24.3,10.1,-001.4,0011.40,0009.48,0009.18
2022-01-20 11:02:00,,0832.1,5.00,0.00,22.5,22.2,00.0,31.3,24.2,10.1,-001.4,0011.44,0009.50,0009.19
2022-01-20 11:03:00,,0832.1,4.99,0.00,22.5,22.0,00.0,31.3,24.2,10.1,-001.1,0011.42,0009.49,0009.18
2022-01-20 11:04:00,,0832.1,5.01,0.00,22.4,21.9,00.0,31.3,24.1,10.1,-001.0,0011.39,0009.48,0009.19
2022-01-20 11:05:00,,0832.1,5.00,0.00,22.4,21.8,00.0,31.3,24.1,10.2,-000.5,0011.35,0009.49,0009.21
2022-01-20 11:06:00,,0832.1,4.99,0.00,22.3,21.7,00.0,31.3,24.0,10.2,-000.6,0011.41,0009.51,0009.22
2022-01-20 11:07:00,,0832.1,5.00,0.00,22.3,21.7,00.0,31.3,24.0,10.2,-000.1,0011.36,0009.50,0009.22
2022-01-20 11:08:00,,0832.1,5.00,0.00,22.3,21.7,00.0,31.3,24.0,10.2,-000.0,0011.34,0009.51,0009.24
2022-01-20 11:09:00,,0832.1,5.00,0.00,22.3,21.6,00.0,31.3,24.0,10.2,-000.6,0011.56,0009.52,0009.26
2022-01-20 11:10:00,,0832.1,5.01,0.00,22.2,21.5,00.0,31.3,23.9,10.2,-000.5,0011.63,0009.55,0009.27
2022-01-20 11:11:00,,0832.0,4.99,0.00,22.2,21.5,00.0,31.2,23.8,10.2,0000.1,0011.34,0009.55,0009.28
2022-01-20 11:12:00,,0832.0,4.99,0.00,22.1,21.4,00.0,31.2,23.7,10.3,-000.5,0011.24,0009.55,0009.27
2022-01-20 11:13:00,,0832.0,5.00,0.00,22.1,21.3,00.0,31.2,23.6,10.3,-000.6,0011.20,0009.52,0009.26
2022-01-20 11:14:00,,0832.0,5.00,0.00,22.1,21.9,00.0,31.2,23.8,10.3,-000.7,0011.41,0009.51,0009.24
2022-01-20 11:15:00,,0832.0,5.00,0.00,22.2,22.7,00.0,31.2,24.1,10.2,-000.5,0011.54,0009.50,0009.22
2022-01-20 11:16:00,,0832.0,5.00,0.00,22.4,23.1,00.0,31.3,24.3,10.1,-000.5,0011.51,0009.49,0009.21
2022-01-20 11:17:00,,0831.9,5.00,0.00,22.4,22.9,00.0,31.3,24.3,10.1,-000.4,0011.46,0009.46,0009.18
2022-01-20 11:18:00,,0832.0,5.00,0.00,22.4,22.7,00.0,31.3,24.3,10.1,-000.2,0011.47,0009.45,0009.16
2022-01-20 11:19:00,,0832.0,5.01,0.00,22.4,22.5,00.0,31.3,24.2,10.1,0000.2,0011.51,0009.45,0009.14
2022-01-20 11:20:00,,0832.0,4.99,0.00,22.4,22.3,00.0,31.3,24.2,10.1,0000.8,0011.40,0009.45,0009.14
2022-01-20 11:21:00,,0832.0,4.99,0.00,22.4,22.1,00.0,31.3,24.1,10.1,0000.7,0011.27,0009.43,0009.12
2022-01-20 11:22:00,,0832.0,5.00,0.00,22.4,22.0,00.0,31.3,24.1,10.1,0000.4,0011.26,0009.42,0009.12
2022-01-20 11:23:00,,0831.9,5.01,0.00,22.3,21.9,00.0,31.3,24.1,10.1,0000.4,0011.25,0009.42,0009.11
2022-01-20 11:24:00,,0831.9,4.98,0.00,22.3,21.8,00.0,31.3,24.0,10.1,0000.7,0011.32,0009.44,0009.12
2022-01-20 11:25:00,,0832.0,5.01,0.00,22.3,21.8,00.0,31.3,24.0,10.1,0000.8,0011.22,0009.48,0009.15
2022-01-20 11:26:00,,0832.0,5.00,0.00,22.3,21.7,00.0,31.3,24.0,10.1,0000.3,0011.09,0009.50,0009.17
2022-01-20 11:27:00,,0832.0,4.99,0.00,22.3,21.6,00.0,31.2,24.0,10.2,0000.2,0011.17,0009.53,0009.18
2022-01-20 11:28:00,,0832.0,5.02,0.00,22.2,21.6,00.0,31.2,23.9,10.2,0000.2,0011.16,0009.53,0009.19
2022-01-20 11:29:00,,0832.0,4.99,0.00,22.2,21.5,00.0,31.2,23.9,10.2,0000.3,0011.09,0009.52,0009.21
2022-01-20 11:30:00,,0832.0,4.99,0.00,22.2,21.5,00.0,31.2,23.9,10.2,0000.1,0011.16,0009.56,0009.23
2022-01-20 11:31:00,,0832.0,5.02,0.00,22.2,21.5,00.0,31.2,23.9,10.2,0000.0,0011.19,0009.58,0009.25
2022-01-20 11:32:00,,0832.0,4.98,0.00,22.2,21.5,00.0,31.2,23.9,10.2,-000.3,0011.21,0009.58,0009.25
2022-01-20 11:33:00,,0832.0,5.01,0.00,22.2,21.4,00.0,31.2,23.9,10.2,-000.4,0011.21,0009.57,0009.24
2022-01-20 11:34:00,,0832.0,4.99,0.00,22.2,21.5,00.0,31.2,23.9,10.2,0000.1,0011.19,0009.57,0009.24
2022-01-20 11:35:00,,0832.0,4.99,0.00,22.2,22.2,00.0,31.2,24.1,10.2,0000.3,0011.14,0009.53,0009.22
2022-01-20 11:36:00,,0832.0,5.00,0.00,22.4,22.9,00.0,31.2,24.3,10.1,0000.6,0011.06,0009.51,0009.22
2022-01-20 11:37:00,,0832.0,5.01,0.00,22.5,23.2,00.0,31.3,24.5,10.0,0000.9,0010.99,0009.48,0009.20
2022-01-20 11:38:00,,0832.0,5.00,0.00,22.6,23.0,00.0,31.3,24.5,10.0,0001.0,0010.89,0009.43,0009.19
2022-01-20 11:39:00,,0832.0,5.00,0.00,22.5,22.7,00.0,31.3,24.4,10.0,0000.7,0010.90,0009.43,0009.18
2022-01-20 11:40:00,,0832.0,5.00,0.00,22.5,22.5,00.0,31.3,24.3,10.0,0000.1,0010.93,0009.42,0009.16
2022-01-20 11:41:00,,0831.9,5.02,0.00,22.5,22.3,00.0,31.3,24.2,10.0,-000.1,0010.89,0009.39,0009.13
2022-01-20 11:42:00,,0831.9,4.99,0.00,22.4,22.1,00.0,31.3,24.2,10.0,-000.2,0011.04,0009.37,0009.11
2022-01-20 11:43:00,,0831.9,4.99,0.00,22.4,22.0,00.0,31.3,24.1,10.0,0000.1,0011.19,0009.36,0009.10
2022-01-20 11:44:00,,0831.9,5.01,0.00,22.4,21.9,00.0,31.3,24.1,10.1,0000.4,0011.14,0009.32,0009.08
2022-01-20 11:45:00,,0832.0,4.99,0.00,22.4,21.8,00.0,31.3,24.0,10.1,0000.5,0011.13,0009.30,0009.06
2022-01-20 11:46:00,,0832.0,5.02,0.00,22.3,21.8,00.0,31.3,24.0,10.1,0000.6,0011.13,0009.30,0009.05
2022-01-20 11:47:00,,0832.0,4.99,0.00,22.3,21.7,00.0,31.3,23.9,10.1,0000.4,0011.13,0009.28,0009.02
2022-01-20 11:48:00,,0831.9,5.01,0.00,22.2,21.6,00.0,31.3,23.9,10.1,0000.1,0011.13,0009.25,0008.98
2022-01-20 11:49:00,,0831.9,5.00,0.00,22.2,21.5,00.0,31.3,23.9,10.1,0000.0,0011.18,0009.26,0008.97
2022-01-20 11:50:00,,0831.9,4.99,0.00,22.2,21.5,00.0,31.3,23.8,10.2,-000.1,0011.14,0009.23,0008.94
2022-01-20 11:51:00,,0831.9,5.00,0.00,22.1,21.4,00.0,31.3,23.8,10.2,-000.2,0011.17,0009.24,0008.93
2022-01-20 11:52:00,,0831.8,5.00,0.00,22.1,21.3,00.0,31.2,23.7,10.2,-000.1,0011.19,0009.26,0008.94
2022-01-20 11:53:00,,0831.8,4.99,0.00,22.1,21.6,00.0,31.2,23.7,10.2,-000.3,0011.06,0009.27,0008.92
2022-01-20 11:54:00,,0831.9,5.01,0.00,22.2,22.3,00.0,31.2,24.0,10.2,-000.3,0010.95,0009.27,0008.89
2022-01-20 11:55:00,,0831.8,5.01,0.00,22.3,23.0,00.0,31.3,24.3,10.1,-000.6,0010.97,0009.27,0008.89
2022-01-20 11:56:00,,0831.8,5.01,0.00,22.4,23.0,00.0,31.3,24.4,10.0,-000.6,0010.95,0009.26,0008.88
2022-01-20 11:57:00,,0831.8,4.99,0.00,22.4,22.8,00.0,31.3,24.3,10.0,-000.4,0010.92,0009.24,0008.86
2022-01-20 11:58:00,,0831.8,4.99,0.00,22.4,22.5,00.0,31.3,24.2,10.0,-000.5,0010.88,0009.23,0008.87
2022-01-20 11:59:00,,0831.8,4.99,0.00,22.4,22.3,00.0,31.3,24.2,10.0,-000.4,0010.92,0009.26,0008.88
